Location: Chesnes
(45.6522°N, 5.1081°E)
Time: 16:00:10
(UTC+00:00)

Daily predictions for brighter satellites

Satellite Brightness Start Highest point End
(mag) Time Altitude Azimuth Time Altitude Azimuth Time Altitude Azimuth
Cosmos 2082 Rocket 3.8 17:14:32 10° N 17:18:11 17° NE 17:21:48 10° E
BREEZE M DEB (TANK) 1.9 17:16:18 10° WNW 17:18:22 49° NNE 17:22:04 10° E
COSMO-SKYMED 1 3.1 17:16:33 10° NNE 17:20:36 36° E 17:24:36 10° SSE
Cosmos 1703 4.4 17:17:54 10° NNE 17:21:08 23° ENE 17:24:19 10° SE
Unknown 4.0 17:17:42 10° WSW 17:21:49 61° NNW 17:25:56 10° NE
Nadezhda 3 Rocket 4.0 17:16:52 10° S 17:23:06 72° E 17:29:26 10° NNE
COSMOS 2406 3.7 17:17:52 10° NNW 17:23:21 42° NE 17:28:46 10° SE
Starlink (trailer) 4.1 17:19:22 10° WSW 17:23:28 60° NNW 17:27:35 10° NE
Cosmos 1934 Rocket 4.3 17:18:47 10° N 17:24:53 47° ENE 17:31:00 10° SSE
Unknown 4.1 17:21:03 10° WSW 17:25:08 58° NNW 17:29:14 10° NE
Unknown 4.1 17:22:39 10° WSW 17:26:45 57° NNW 17:30:51 10° NE
Cosmos 1825 Rocket 3.6 17:24:23 10° N 17:28:46 89° E 17:33:11 10° S
Cosmos 1953 2.3 17:25:00 10° S 17:29:03 84° E 17:33:08 10° N
Abrixas rocket 4.1 17:27:14 10° S 17:29:03 15° SE 17:30:53 10° ESE
Cosmos 1953 Rocket 3.5 17:26:58 10° N 17:31:19 65° E 17:35:37 10° SSE
Unknown 4.2 17:29:10 10° WSW 17:33:13 52° NNW 17:37:17 10° NE
YAOGAN 6 2.9 17:29:58 10° SE 17:33:27 43° ENE 17:36:56 10° N
Unknown 4.2 17:29:24 10° WSW 17:33:28 53° NNW 17:37:32 10° NE
Unknown 4.2 17:30:05 10° WSW 17:34:09 52° NNW 17:38:13 10° NE
Unknown 3.9 17:33:14 10° NW 17:36:05 32° NNE 17:38:29 13° E
Unknown 4.3 17:34:02 10° W 17:38:04 50° NNW 17:42:08 10° NE
Cosmos 1844 Rocket 2.8 17:32:41 10° SSW 17:38:21 82° WNW 17:44:02 10° NNE
Unknown 4.3 17:34:27 10° W 17:38:29 50° NNW 17:42:32 10° NE
Unknown 4.4 17:36:14 10° W 17:40:16 48° NNW 17:44:18 10° NE
FengYun 1-2 T 4.2 17:34:48 10° SSE 17:40:23 69° ENE 17:45:59 10° N
Unknown 4.4 17:39:35 10° W 17:43:35 46° NNW 17:47:35 10° NE
Cosmos 1606 Rocket 3.7 17:39:15 10° S 17:43:39 82° W 17:48:02 10° N
Unknown 4.4 17:39:57 10° W 17:43:59 47° NNW 17:47:57 10° NE
Unknown 4.4 17:41:09 10° W 17:45:10 47° NNW 17:49:06 11° NE
Unknown 2.4 17:43:06 10° NW 17:45:44 65° NNE 17:47:39 17° ESE
Envisat 3.1 17:42:37 10° SSE 17:47:43 85° WSW 17:52:49 10° NNW
Unknown 4.4 17:44:19 10° W 17:48:19 46° NNW 17:52:07 11° NE
Meteor 1-16 Rocket 4.1 17:43:13 10° S 17:48:44 69° E 17:54:08 10° NNE
BREEZE-M DEB (TANK) 3.7 17:44:41 10° SW 17:49:36 32° SSE 17:51:13 18° E
Cosmos 1908 3.7 17:50:03 10° SSE 17:53:42 39° E 17:57:21 10° NNE
Cosmos 1461 4.0 17:52:48 10° NNW 17:56:15 26° NE 17:58:04 19° E
Lacrosse 5 rocket 2.5 17:55:06 10° WNW 17:58:39 38° SW 18:02:21 10° SSE
ASTEX 1 3.4 17:54:01 10° N 17:59:00 87° E 18:03:58 10° S
Cosmos 1356 3.3 17:55:36 10° S 17:59:00 65° E 18:02:26 10° NNE
Cosmos 2278 Rocket 2.6 17:54:34 10° S 17:59:47 39° ESE 18:05:00 10° NE
Cosmos 1939 Rocket 3.4 17:56:33 10° SE 18:00:13 37° ENE 18:03:58 10° N
Unknown 4.5 18:00:38 10° NW 18:03:38 27° NNE 18:05:05 20° NE
Cosmos 1844 4.1 17:58:47 10° SW 18:04:27 66° WNW 18:10:14 10° NNE
ATLAS 5 CENTAUR R/B 3.2 18:01:30 10° WSW 18:05:26 33° NW 18:09:52 10° NNE
SKYMED 2 3.9 18:04:23 10° N 18:08:43 70° WNW 18:13:02 10° SSW
Cosmos 489 Rocket 4.4 18:02:41 10° S 18:08:52 72° ESE 18:15:04 10° NNE
Cosmos 1328 3.8 18:05:53 10° N 18:09:54 86° W 18:13:51 10° S
YAOGAN 1 2.6 18:08:02 10° SSE 18:12:21 82° WSW 18:16:44 10° NNW
Cosmos 1076 Rocket 4.4 18:10:02 10° NNE 18:13:50 28° ENE 18:14:33 27° E
Falcon 9 debris 4.3 18:15:01 10° NW 18:18:07 30° NNE 18:18:58 26° NE
Cosmos 292 Rocket 3.7 18:14:46 10° SSW 18:19:32 86° WNW 18:24:19 10° NNE
CSL-04 Rocket 4.0 18:17:04 10° S 18:22:36 71° WSW 18:28:07 10° NNW
CZ-4 R/B 2.6 18:19:10 10° S 18:23:10 47° W 18:27:15 10° NNW
USA 238 DEB 4.0 18:18:14 10° S 18:24:23 41° ESE 18:28:53 19° ENE
USA 238 4.0 18:18:21 10° S 18:24:30 41° ESE 18:28:55 19° ENE
Unknown 4.3 18:25:08 10° NW 18:28:19 31° NNE 18:28:48 29° NNE
Shenzhou-11 Module 2.4 18:27:13 10° WSW 18:29:46 44° SSW 18:29:46 44° SSW
Ariane Rocket 2.9 18:25:14 10° SSE 18:30:18 71° ENE 18:35:24 10° N
NOAA 11 4.1 18:25:00 10° SSE 18:30:27 83° ENE 18:35:55 10° NNW
Cosmos 1726 3.2 18:26:59 10° SSW 18:30:30 45° WNW 18:34:03 10° N
Lacrosse 5 2.4 18:26:22 10° NW 18:31:13 44° NNE 18:32:48 34° ENE
Cosmos 1242 Rocket 4.3 18:30:14 10° NNW 18:33:38 35° W 18:37:00 10° SSW
CZ-2D R/B 3.4 18:34:21 10° S 18:38:11 72° WSW 18:42:03 10° NNW
ARGOS 4.0 18:38:25 29° ENE 18:38:25 29° ENE 18:42:53 10° N
Cosmos 2058 Rocket 4.5 18:36:28 10° SW 18:40:32 39° WNW 18:44:39 10° N
Cosmos 1833 Rocket 2.6 18:35:29 10° NNW 18:41:07 76° ENE 18:44:18 27° SE
SPOT 3 Rocket 3.9 18:48:34 42° ENE 18:48:37 42° ENE 18:53:30 10° N
NOSS 3-2 (A) 3.5 18:44:39 10° S 18:50:06 48° ESE 18:51:20 42° E
HJ-1C 3.5 18:51:32 70° NW 18:51:32 70° NW 18:54:38 10° NNW
Cosmos 1459 Rocket 4.0 18:50:41 10° N 18:56:49 59° ENE 18:58:57 39° SE
Cosmos 2058 3.8 18:55:21 10° N 18:58:09 38° NNE 18:58:09 38° NNE
Gbstr 26 Del rocket 4.1 18:55:21 10° WNW 19:01:41 85° NNE 19:04:04 46° ESE
Cosmos 2082 Rocket 2.1 18:57:30 10° NNW 19:03:15 79° ENE 19:04:38 53° SE
Abrixas rocket 4.2 19:01:29 10° WSW 19:02:52 24° WSW 19:02:52 24° WSW
SJ 16-02 3.4 19:01:12 10° N 19:02:25 16° NNE 19:02:25 16° NNE
Resurs 01 Rocket 4.0 19:09:04 12° NNE 19:09:04 12° NNE 19:09:34 10° N
H-2A R/B 2.4 19:06:53 48° NE 19:06:53 48° NE 19:11:29 10° N
Cosmos 1727 Rocket 4.1 19:01:38 10° SSW 19:07:48 74° W 19:14:00 10° N
NOSS 3-2 (C) 4.5 19:07:45 10° S 19:10:26 27° S 19:10:26 27° S
Cosmos 1802 Rocket 3.9 19:10:24 10° N 19:16:51 70° E 19:17:48 61° SE
Cosmos 2173 Rocket 3.8 19:13:50 10° N 19:20:09 87° E 19:22:02 48° S
SJ-11-01 4.4 19:22:27 69° WSW 19:22:35 70° WSW 19:27:17 10° NNW
In-Cosmos 22 Rocket 4.1 19:25:24 10° NNW 19:30:27 79° NNW 19:30:27 79° NNW
Cosmos 1898 Rocket 4.2 19:28:50 10° NNW 19:32:33 45° N 19:32:33 45° N
CZ-2C R/B 4.0 19:37:01 42° NNE 19:37:01 42° NNE 19:40:59 10° N
Cosmos 1461 4.3 19:31:35 10° NW 19:34:29 35° W 19:34:29 35° W
ADEOS Rocket 3.3 19:28:35 10° NNE 19:36:23 79° ESE 19:43:37 10° S
Cosmos 1725 Rocket 4.3 19:32:23 10° N 19:37:16 53° NNE 19:37:16 53° NNE
Cosmos 1000 Rocket 4.5 19:33:42 10° SSW 19:39:52 77° W 19:46:09 10° N
Cosmos 2100 Rocket 4.3 19:34:51 10° NNW 19:40:58 62° W 19:43:19 37° SSW
Cosmos 2278 Rocket 3.6 19:38:39 10° WSW 19:43:52 37° NW 19:49:08 10° NNE
ATLAS 5 CENTAUR R/B 4.5 19:49:41 10° NW 19:51:46 12° NNW 19:53:19 11° N
Cosmos 2016 Rocket 4.3 19:57:37 10° NNW 20:03:18 63° WNW 20:03:18 63° WNW
Lacrosse 5 3.7 20:09:25 10° WNW 20:12:01 28° WNW 20:12:01 28° WNW
USA 238 DEB 4.3 20:08:42 10° WSW 20:15:13 50° NW 20:16:23 46° NNW
USA 238 4.3 20:08:48 10° WSW 20:15:20 51° NW 20:16:26 47° NNW
H-2A R/B 4.4 20:47:31 21° WNW 20:47:31 21° WNW 20:50:14 10° NW
